Date String (YYYY-MM-DD hh:mm:ss) UTC,Instrument flags,absolute air pressure of the measurement (hPa),sample flow rate (lpm),inlet stack bypass flow (lpm),air temperature of the measurement (°C),ambient temperature measured by the external sensor (°C),aerosol sample conditioner tube jacket temperature (°C),OPC LED temperature (°C),internal box temperature (°C),relative humidity of the measurement (%),span deviation,mass concentration of particles derived from Lorenz-Mie calculation of OPC scattering (μg/m³),mass concentration of particles derived from Lorenz-Mie calculation of OPC scattering (μg/m³),mass concentration of particles derived from Lorenz-Mie calculation of OPC scattering (μg/m³)
DateTimeUTC,F1_M11,P_M11,Q1_M11,Q2_M11,T1_M11,T2_M11,T3_M11,T4_M11,T5_M11,U1_M11,ZSPAN_M11,X2_M11,X0_M11,X1_M11
2024-04-24 05:00:00,SystemResetWarning,0831.6,5.00,000.00,026.0,025.4,000.0,034.4,027.9,025.3,0000.0,0004.38,0010.98,0003.29
2024-04-24 05:01:00,SystemResetWarning,0831.6,5.00,000.00,026.0,025.4,000.0,034.4,027.9,025.5,0000.0,0004.41,0011.12,0003.30
2024-04-24 05:02:00,SystemResetWarning,0831.6,4.99,000.00,026.0,025.5,000.0,034.4,027.9,024.9,0000.0,0004.45,0011.20,0003.31
2024-04-24 05:03:00,SystemResetWarning,0831.6,5.00,000.00,026.1,025.5,000.0,034.4,027.9,024.7,0000.0,0004.44,0010.92,0003.32
2024-04-24 05:04:00,SystemResetWarning,0831.6,5.00,000.00,026.1,025.5,000.0,034.4,028.0,025.3,0000.0,0004.46,0010.99,0003.32
2024-04-24 05:05:00,SystemResetWarning,0831.5,5.00,000.00,026.1,025.5,000.0,034.4,028.0,024.8,0000.0,0004.47,0010.96,0003.35
2024-04-24 05:06:00,SystemResetWarning,0831.5,5.01,000.00,026.1,025.5,000.0,034.5,028.0,024.2,0000.0,0004.47,0010.55,0003.35
2024-04-24 05:07:00,SystemResetWarning,0831.6,5.00,000.00,026.1,025.5,000.0,034.5,028.0,025.0,0000.0,0004.51,0010.66,0003.36
2024-04-24 05:08:00,SystemResetWarning,0831.6,4.99,000.00,026.1,025.5,000.0,034.5,028.0,025.7,0000.0,0004.51,0010.49,0003.37
2024-04-24 05:09:00,SystemResetWarning,0831.5,4.99,000.00,026.1,025.5,000.0,034.5,028.0,025.5,0000.0,0004.48,0010.36,0003.38
2024-04-24 05:10:00,SystemResetWarning,0831.5,5.01,000.00,026.1,025.5,000.0,034.5,028.0,025.2,0000.0,0004.45,0010.35,0003.37
2024-04-24 05:11:00,SystemResetWarning,0831.5,5.01,000.00,026.1,025.5,000.0,034.5,028.0,025.1,0000.0,0004.47,0009.90,0003.39
2024-04-24 05:12:00,SystemResetWarning,0831.5,4.99,000.00,026.2,025.6,000.0,034.5,028.0,024.9,0000.0,0004.46,0009.83,0003.37
2024-04-24 05:13:00,SystemResetWarning,0831.5,4.99,000.00,026.2,025.5,000.0,034.6,028.1,024.8,0000.0,0004.41,0009.63,0003.36
2024-04-24 05:14:00,SystemResetWarning,0831.5,4.99,000.00,026.2,025.6,000.0,034.6,028.1,024.6,0000.0,0004.40,0009.58,0003.35
2024-04-24 05:15:00,SystemResetWarning,0831.5,5.00,000.00,026.2,025.6,000.0,034.6,028.1,024.7,0000.0,0004.40,0010.07,0003.35
2024-04-24 05:16:00,SystemResetWarning,0831.5,5.00,000.00,026.2,025.6,000.0,034.6,028.1,024.4,0000.0,0004.38,0010.07,0003.33
2024-04-24 05:17:00,SystemResetWarning,0831.5,5.00,000.00,026.2,025.6,000.0,034.6,028.1,023.9,0000.0,0004.34,0010.42,0003.32
2024-04-24 05:18:00,SystemResetWarning,0831.5,5.00,000.00,026.2,025.6,000.0,034.6,028.1,023.9,0000.0,0004.27,0010.40,0003.31
2024-04-24 05:19:00,SystemResetWarning,0831.5,5.00,000.00,026.2,025.6,000.0,034.6,028.1,024.0,0000.0,0004.27,0010.53,0003.29
2024-04-24 05:20:00,SystemResetWarning,0831.5,5.00,000.00,026.2,025.6,000.0,034.6,028.1,024.3,0000.0,0004.25,0010.64,0003.27
2024-04-24 05:21:00,SystemResetWarning,0831.4,5.00,000.00,026.2,025.6,000.0,034.7,028.1,024.4,0000.0,0004.26,0010.17,0003.27
2024-04-24 05:22:00,SystemResetWarning,0831.4,5.00,000.00,026.2,025.6,000.0,034.7,028.1,024.8,0000.0,0004.25,0010.42,0003.25
2024-04-24 05:23:00,SystemResetWarning,0831.4,5.00,000.00,026.2,025.6,000.0,034.7,028.1,025.3,0000.0,0004.20,0010.42,0003.25
2024-04-24 05:24:00,SystemResetWarning,0831.4,5.00,000.00,026.2,025.6,000.0,034.7,028.1,025.1,0000.0,0004.20,0010.95,0003.26
2024-04-24 05:25:00,SystemResetWarning,0831.4,5.00,000.00,026.2,025.6,000.0,034.7,028.1,024.8,0000.0,0004.19,0011.18,0003.26
2024-04-24 05:26:00,SystemResetWarning,0831.3,5.00,000.00,026.3,025.6,000.0,034.7,028.1,024.7,0000.0,0004.17,0010.92,0003.25
2024-04-24 05:27:00,SystemResetWarning,0831.3,5.00,000.00,026.3,025.6,000.0,034.7,028.1,024.3,0000.0,0004.17,0011.83,0003.24
2024-04-24 05:28:00,SystemResetWarning,0831.3,4.99,000.00,026.3,025.6,000.0,034.7,028.1,023.8,0000.0,0004.22,0012.19,0003.25
2024-04-24 05:29:00,SystemResetWarning,0831.4,5.00,000.00,026.3,025.6,000.0,034.7,028.1,023.5,0000.0,0004.26,0011.96,0003.25
2024-04-24 05:30:00,SystemResetWarning,0831.4,5.00,000.00,026.3,025.6,000.0,034.7,028.1,023.5,0000.0,0004.25,0011.93,0003.24
2024-04-24 05:31:00,SystemResetWarning,0831.4,5.00,000.00,026.3,025.6,000.0,034.7,028.1,023.3,0000.0,0004.27,0011.89,0003.24
2024-04-24 05:32:00,SystemResetWarning,0831.4,5.01,000.00,026.3,025.6,000.0,034.7,028.1,023.1,0000.0,0004.29,0011.77,0003.24
2024-04-24 05:33:00,SystemResetWarning,0831.4,5.00,000.00,026.3,025.6,000.0,034.8,028.1,023.1,0000.0,0004.27,0011.36,0003.24
2024-04-24 05:34:00,SystemResetWarning,0831.4,5.00,000.00,026.3,025.6,000.0,034.8,028.1,022.9,0000.0,0004.28,0011.48,0003.23
2024-04-24 05:35:00,SystemResetWarning,0831.4,5.00,000.00,026.3,025.6,000.0,034.8,028.1,022.7,0000.0,0004.27,0011.71,0003.22
2024-04-24 05:36:00,SystemResetWarning,0831.4,5.00,000.00,026.3,025.6,000.0,034.8,028.2,023.1,0000.0,0004.32,0011.82,0003.22
2024-04-24 05:37:00,SystemResetWarning,0831.4,4.99,000.00,026.3,025.6,000.0,034.8,028.2,023.4,0000.0,0004.33,0011.78,0003.22
2024-04-24 05:38:00,SystemResetWarning,0831.4,4.99,000.00,026.3,025.6,000.0,034.8,028.2,023.4,0000.0,0004.32,0010.97,0003.22
2024-04-24 05:39:00,SystemResetWarning,0831.4,5.00,000.00,026.3,025.6,000.0,034.8,028.2,023.1,0000.0,0004.23,0010.38,0003.21
2024-04-24 05:40:00,SystemResetWarning,0831.5,5.00,000.00,026.3,025.7,000.0,034.8,028.2,022.7,0000.0,0004.23,0010.42,0003.20
2024-04-24 05:41:00,SystemResetWarning,0831.4,5.00,000.00,026.3,025.6,000.0,034.8,028.2,022.6,0000.0,0004.23,0010.44,0003.20
2024-04-24 05:42:00,SystemResetWarning,0831.5,5.00,000.00,026.3,025.7,000.0,034.8,028.2,022.5,0000.0,0004.23,0010.16,0003.20
2024-04-24 05:43:00,SystemResetWarning,0831.4,5.01,000.00,026.3,025.7,000.0,034.8,028.2,022.3,0000.0,0004.18,0010.11,0003.20
2024-04-24 05:44:00,SystemResetWarning,0831.5,4.99,000.00,026.3,025.7,000.0,034.8,028.2,022.2,0000.0,0004.17,0010.17,0003.19
2024-04-24 05:45:00,SystemResetWarning,0831.4,5.00,000.00,026.3,025.7,000.0,034.8,028.2,022.3,0000.0,0004.17,0010.10,0003.18
2024-04-24 05:46:00,SystemResetWarning,0831.5,4.99,000.00,026.3,025.7,000.0,034.8,028.2,022.6,0000.0,0004.20,0010.05,0003.18
2024-04-24 05:47:00,SystemResetWarning,0831.5,5.00,000.00,026.3,025.7,000.0,034.8,028.2,022.5,0000.0,0004.21,0009.89,0003.17
2024-04-24 05:48:00,SystemResetWarning,0831.5,5.01,000.00,026.3,025.7,000.0,034.8,028.2,022.5,0000.0,0004.18,0009.78,0003.16
2024-04-24 05:49:00,SystemResetWarning,0831.5,5.01,000.00,026.3,025.6,000.0,034.8,028.2,022.3,0000.0,0004.23,0009.71,0003.16
2024-04-24 05:50:00,SystemResetWarning,0831.5,5.00,000.00,026.3,025.7,000.0,034.8,028.2,022.3,0000.0,0004.28,0009.69,0003.17
2024-04-24 05:51:00,SystemResetWarning,0831.5,4.99,000.00,026.3,025.6,000.0,034.8,028.2,022.3,0000.0,0004.28,0009.67,0003.17
2024-04-24 05:52:00,SystemResetWarning,0831.5,4.99,000.00,026.3,025.6,000.0,034.8,028.2,022.5,0000.0,0004.28,0009.70,0003.17
2024-04-24 05:53:00,SystemResetWarning,0831.5,5.00,000.00,026.3,025.6,000.0,034.8,028.2,022.5,0000.0,0004.24,0009.65,0003.16
2024-04-24 05:54:00,SystemResetWarning,0831.5,5.00,000.00,026.3,025.6,000.0,034.8,028.2,022.6,0000.0,0004.21,0009.53,0003.17
2024-04-24 05:55:00,SystemResetWarning,0831.6,5.00,000.00,026.3,025.6,000.0,034.8,028.2,022.5,0000.0,0004.19,0009.54,0003.16
2024-04-24 05:56:00,SystemResetWarning,0831.6,5.01,000.00,026.3,025.6,000.0,034.8,028.1,022.6,0000.0,0004.19,0009.51,0003.16
2024-04-24 05:57:00,SystemResetWarning,0831.6,5.01,000.00,026.3,025.6,000.0,034.8,028.1,022.7,0000.0,0004.15,0009.20,0003.15
2024-04-24 05:58:00,SystemResetWarning,0831.6,4.99,000.00,026.3,025.6,000.0,034.8,028.1,023.0,0000.0,0004.07,0009.12,0003.14
2024-04-24 05:59:00,SystemResetWarning,0831.6,4.99,000.00,026.3,025.6,000.0,034.8,028.1,023.3,0000.0,0004.07,0009.08,0003.15
